TimeEST,TemperatureF,Dew PointF,Humidity,Sea Level PressureIn,VisibilityMPH,Wind Direction,Wind SpeedMPH,Gust SpeedMPH,PrecipitationIn,Events,Conditions,WindDirDegrees,DateUTC
12:05 AM,30.2,28.4,93,30.11,2.5,North,8.1,-,0.00,Snow,Light Snow,350,2013-12-06 05:05:00
12:12 AM,30.2,28.4,93,30.11,2.0,North,8.1,-,0.00,Snow,Light Snow,350,2013-12-06 05:12:00
12:29 AM,30.2,28.4,93,30.11,3.0,North,10.4,-,0.00,Snow,Light Snow,350,2013-12-06 05:29:00
12:53 AM,30.0,28.0,92,30.16,3.0,NNW,6.9,-,0.00,Snow,Light Snow,340,2013-12-06 05:53:00
1:08 AM,30.2,28.4,93,30.12,2.0,North,6.9,-,0.01,Snow,Light Snow,350,2013-12-06 06:08:00
1:33 AM,30.2,26.6,86,30.13,3.0,NNW,12.7,-,0.02,Snow,Light Snow,340,2013-12-06 06:33:00
1:41 AM,28.4,26.6,93,30.13,2.0,NNW,12.7,-,0.02,Snow,Light Snow,340,2013-12-06 06:41:00
1:48 AM,28.4,26.6,93,30.13,1.8,NNW,10.4,-,0.02,Snow,Light Snow,340,2013-12-06 06:48:00
1:53 AM,28.9,27.0,92,30.15,1.5,NNW,12.7,-,0.02,Snow,Light Snow,340,2013-12-06 06:53:00
2:10 AM,28.4,26.6,93,30.13,2.0,NNW,10.4,-,0.01,Snow,Light Snow,340,2013-12-06 07:10:00
2:19 AM,28.4,26.6,93,30.14,2.5,NNW,9.2,-,0.01,Snow,Light Snow,340,2013-12-06 07:19:00
2:30 AM,28.4,26.6,93,30.15,4.0,NNW,10.4,-,0.01,Snow,Light Snow,340,2013-12-06 07:30:00
2:50 AM,28.4,24.8,86,30.14,4.0,NNW,12.7,-,0.01,Snow,Light Snow,340,2013-12-06 07:50:00
2:53 AM,28.0,25.0,88,30.18,4.0,NNW,12.7,-,0.01,Snow,Light Snow,340,2013-12-06 07:53:00
3:09 AM,28.4,24.8,86,30.14,2.5,NNW,10.4,-,0.00,Snow,Light Snow,340,2013-12-06 08:09:00
3:25 AM,28.4,24.8,86,30.15,3.0,NNW,10.4,-,0.00,Snow,Light Snow,340,2013-12-06 08:25:00
3:53 AM,28.0,25.0,88,30.20,2.0,NNW,8.1,-,0.00,Snow,Light Snow,330,2013-12-06 08:53:00
4:00 AM,28.4,24.8,86,30.17,1.8,NNW,6.9,-,0.00,Snow,Light Snow,330,2013-12-06 09:00:00
4:11 AM,26.6,24.8,93,30.17,1.5,NNW,5.8,-,0.01,Snow,Light Snow,330,2013-12-06 09:11:00
4:26 AM,26.6,26.6,100,30.17,2.0,NW,4.6,-,0.01,Snow,Light Snow,320,2013-12-06 09:26:00
4:45 AM,28.4,26.6,93,30.17,3.0,NW,4.6,-,0.01,Snow,Light Snow,320,2013-12-06 09:45:00
4:53 AM,28.0,26.1,92,30.20,3.0,NW,3.5,-,0.01,Snow,Light Snow,310,2013-12-06 09:53:00
5:53 AM,28.0,25.0,88,30.22,3.0,NW,5.8,-,0.00,Snow,Light Snow,320,2013-12-06 10:53:00
6:53 AM,28.0,25.0,88,30.21,5.0,NNW,3.5,-,0.00,,Overcast,330,2013-12-06 11:53:00
7:53 AM,28.9,25.0,85,30.24,6.0,NW,4.6,-,N/A,,Overcast,310,2013-12-06 12:53:00
8:53 AM,28.9,24.1,82,30.27,5.0,NW,6.9,-,N/A,,Haze,310,2013-12-06 13:53:00
9:53 AM,28.9,24.1,82,30.26,5.0,NNW,5.8,-,N/A,,Haze,330,2013-12-06 14:53:00
10:53 AM,30.0,24.1,79,30.27,6.0,NNW,6.9,-,N/A,,Haze,330,2013-12-06 15:53:00
11:14 AM,30.2,24.8,80,30.25,6.0,NNW,6.9,-,N/A,,Haze,330,2013-12-06 16:14:00
11:53 AM,30.0,24.1,79,30.27,6.0,NNW,9.2,-,N/A,,Haze,330,2013-12-06 16:53:00
12:26 PM,30.2,24.8,80,30.24,6.0,North,11.5,-,N/A,,Haze,350,2013-12-06 17:26:00
12:42 PM,30.2,24.8,80,30.23,1.8,NNW,10.4,-,0.00,Snow,Light Snow,330,2013-12-06 17:42:00
12:50 PM,28.4,24.8,86,30.23,1.2,NNW,9.2,-,0.00,Snow,Light Snow,330,2013-12-06 17:50:00
12:53 PM,28.9,24.1,82,30.27,1.2,NNW,10.4,-,0.00,Snow,Light Snow,340,2013-12-06 17:53:00
1:04 PM,28.4,24.8,86,30.22,0.8,NNW,10.4,-,0.00,Snow,Light Snow,340,2013-12-06 18:04:00
1:15 PM,28.4,26.6,93,30.20,1.0,NNW,8.1,-,0.00,Snow,Light Snow,340,2013-12-06 18:15:00
1:41 PM,28.4,24.8,86,30.20,1.8,North,10.4,-,0.01,Snow,Light Snow,350,2013-12-06 18:41:00
1:53 PM,28.9,26.1,89,30.25,1.5,North,5.8,-,0.01,Snow,Light Snow,350,2013-12-06 18:53:00
2:04 PM,28.4,26.6,93,30.20,1.5,North,8.1,-,0.00,Snow,Light Snow,360,2013-12-06 19:04:00
2:24 PM,28.4,24.8,86,30.19,0.8,North,9.2,-,0.00,Snow,Light Snow,360,2013-12-06 19:24:00
2:40 PM,28.4,24.8,86,30.19,1.2,North,9.2,-,0.00,Snow,Light Snow,360,2013-12-06 19:40:00
2:53 PM,28.9,26.1,89,30.24,1.2,North,8.1,-,0.00,Snow,Light Snow,360,2013-12-06 19:53:00
2:56 PM,28.4,24.8,86,30.19,0.8,North,8.1,-,0.00,Snow,Light Snow,360,2013-12-06 19:56:00
3:12 PM,28.4,24.8,86,30.21,1.2,North,8.1,-,0.00,Snow,Light Snow,350,2013-12-06 20:12:00
3:26 PM,28.4,24.8,86,30.21,0.8,North,10.4,-,0.01,Snow,Light Snow,350,2013-12-06 20:26:00
3:49 PM,28.4,24.8,86,30.20,1.0,North,8.1,-,0.01,Snow,Light Snow,350,2013-12-06 20:49:00
3:53 PM,28.0,26.1,92,30.24,1.2,North,9.2,-,0.01,Snow,Light Snow,350,2013-12-06 20:53:00
4:00 PM,28.4,24.8,86,30.21,1.0,North,15.0,-,0.00,Snow,Light Snow,350,2013-12-06 21:00:00
4:11 PM,26.6,24.8,93,30.22,0.8,North,10.4,-,0.00,Snow,Light Snow,350,2013-12-06 21:11:00
4:51 PM,26.6,24.8,93,30.22,0.2,NNE,8.1,-,0.01,Fog-Snow,Snow,20,2013-12-06 21:51:00
4:53 PM,26.1,24.1,92,30.27,0.2,NNE,8.1,-,0.02,Fog-Snow,Snow,20,2013-12-06 21:53:00
5:14 PM,26.6,24.8,93,30.24,1.2,North,9.2,-,0.01,Snow,Light Snow,360,2013-12-06 22:14:00
5:34 PM,26.6,24.8,93,30.24,1.5,North,13.8,-,0.01,Snow,Light Snow,10,2013-12-06 22:34:00
5:40 PM,26.6,24.8,93,30.24,1.0,North,12.7,-,0.01,Snow,Light Snow,10,2013-12-06 22:40:00
5:45 PM,26.6,24.8,93,30.23,0.8,North,10.4,-,0.01,Snow,Light Snow,10,2013-12-06 22:45:00
5:53 PM,26.1,24.1,92,30.27,0.5,North,12.7,-,0.01,Fog-Snow,Snow,10,2013-12-06 22:53:00
6:02 PM,26.6,24.8,93,30.22,1.0,North,12.7,-,0.01,Snow,Light Snow,360,2013-12-06 23:02:00
6:07 PM,26.6,24.8,93,30.23,1.2,North,10.4,-,0.01,Snow,Light Snow,360,2013-12-06 23:07:00
6:53 PM,25.0,24.1,96,30.32,1.0,North,6.9,-,0.02,Snow,Light Snow,350,2013-12-06 23:53:00
7:31 PM,24.8,23.0,93,30.26,0.8,NNE,8.1,-,0.01,Snow,Light Snow,30,2013-12-07 00:31:00
7:41 PM,24.8,23.0,93,30.31,1.0,NNE,5.8,-,0.01,Snow,Light Snow,20,2013-12-07 00:41:00
7:53 PM,25.0,23.0,92,30.34,1.0,NNE,6.9,-,0.02,Snow,Light Snow,30,2013-12-07 00:53:00
8:08 PM,24.8,23.0,93,30.29,1.5,NNE,8.1,-,0.00,Snow,Light Snow,30,2013-12-07 01:08:00
8:22 PM,24.8,23.0,93,30.29,2.0,North,6.9,-,0.00,Snow,Light Snow,10,2013-12-07 01:22:00
8:35 PM,24.8,23.0,93,30.29,2.0,North,6.9,-,0.00,Snow,Light Snow,10,2013-12-07 01:35:00
8:44 PM,24.8,23.0,93,30.31,2.0,North,4.6,-,0.00,Snow,Light Snow,360,2013-12-07 01:44:00
8:51 PM,24.8,23.0,93,30.30,1.8,North,8.1,-,0.00,Snow,Light Snow,360,2013-12-07 01:51:00
8:52 PM,25.0,23.0,92,30.35,2.0,North,6.9,-,0.00,Snow,Light Snow,360,2013-12-07 01:52:00
9:41 PM,24.8,21.2,86,30.31,4.0,NNE,4.6,-,0.00,Snow,Light Snow,30,2013-12-07 02:41:00
9:53 PM,24.1,21.9,91,30.36,5.0,NNE,4.6,-,0.00,Snow,Light Snow,30,2013-12-07 02:53:00
10:53 PM,24.1,21.0,88,30.38,6.0,NNW,3.5,-,0.00,Snow,Light Snow,340,2013-12-07 03:53:00
11:53 PM,24.1,21.0,88,30.40,8.0,Calm,Calm,-,0.00,,Overcast,0,2013-12-07 04:53:00